AirNav   SIMCOM
 
 612 users online  

44GA S&S Flying Service Airport
Pineview, Georgia, USA

GOING TO PINEVIEW?


FAA INFORMATION EFFECTIVE 09 NOVEMBER 2017

Location

FAA Identifier: 44GA
Lat/Long: 32-06-15.6150N / 083-28-58.6060W
32-06.260250N / 083-28.976767W
32.1043375 / -83.4829461
(estimated)
Elevation: 260 ft. / 79 m (estimated)
Variation: 02W (1986)
From city: 1 mile E of PINEVIEW, GA
Time zone: UTC -5 (UTC -4 during Daylight Saving Time)
Zip code: 31071

Airport Operations

Airport use: Private use. Permission required prior to landing
Activation date: 03/1986
Control tower: no
ARTCC: JACKSONVILLE CENTER
FSS: MACON FLIGHT SERVICE STATION
Attendance: MON-SAT 0800-1700
Wind indicator: yes
Segmented circle: no

Airport Communications

WX AWOS-3PT at CKF (16 nm SW): 119.325 (229-276-2669)
WX AWOS-3 at EZM (19 nm E): 119.425 (478-374-9979)

Nearby radio navigation aids

VOR radial/distance  VOR name  Freq  Var
VNAr173/6.6VIENNA VORTAC116.5001E
MCNr166/36.2MACON VORTAC114.2001E

 
NDB name  Hdg/Dist  Freq  Var  ID
EASTMAN268/16.836604WEZM . --.. --
CONEY078/20.340006WOHY --- .... -.--
MC RAE274/30.528003WMQW -- --.- .--
MONTEZUMA125/30.942604WIZS .. --.. ...
FITZGERALD347/31.136205WSUR ... ..- .-.
LINDBERGH102/32.024204WLKG .-.. -.- --.

Airport Services

Runway Information

Runway 18/36

Dimensions: 3000 x 100 ft. / 914 x 30 m
Surface: turf
RUNWAY 18  RUNWAY 36
Traffic pattern: leftleft
Obstructions: 35 ft. trees, 10 ft. from runway35 ft. pline, 1 ft. from runway

Airport Ownership and Management from official FAA records

Ownership: Privately-owned
Owner: J.D. SCARBOROUGH
PO BOX 28
PINEVIEW, GA 31071
Phone 912-624-2703
Manager: J.D. SCARBOROUGH
PO BOX 28
PINEVIEW, GA 31071
Phone 912-624-2703

Airport Operational Statistics

Aircraft based on the field: 2
Single engine airplanes: 2
    

Instrument Procedures

There are no published instrument procedures at 44GA.

Some nearby airports with instrument procedures:

KCKF - Crisp County-Cordele Airport (16 nm SW)
KEZM - Heart of Georgia Regional Airport (19 nm E)
48A - Cochran Airport (21 nm NE)
75J - Turner County Airport (26 nm S)
KFZG - Fitzgerald Municipal Airport (27 nm SE)
 
Loc | Ops | Rwys | IFR | FBO | Links
Com | Nav | Svcs | Stats | Notes


 
Area around 44GA (S&S Flying Service Airport)
 
Road maps at: MapQuest Bing Google
 
Aerial photo
No photo
 
Sectional chart

 
Airport distance calculator
Flying to S&S Flying Service Airport? Find the distance to fly.

From to 44GA

Sunrise and sunset
Times for 23-Nov-2017
 Local
(UTC-5)
 Zulu
(UTC)
Morning civil twilight06:4511:45
Sunrise07:1112:11
Sunset17:3022:30
Evening civil twilight17:5622:56

Current date and time
Zulu (UTC)  23-Nov-2017 20:55:27
Local (UTC-5)  23-Nov-2017 15:55:27
 
METAR
KCKF 
16nm SW 
232035Z AUTO 08005KT 10SM BKN050 19/10 A2997 RMK AO2 T01890095
KEZM 
19nm E 
232035Z AUTO 05005KT 10SM OVC046 16/03 A2999 RMK AO2 T01640029
KFZG 
27nm SE 
232035Z AUTO 03003KT 10SM OVC016 15/12 A2998 RMK AO2 T01510119
KPXE 
28nm NW 
232035Z AUTO 05006KT 10SM CLR 17/07 A2997 RMK AO2 T01700070
KWRB 
31nm N 
231956Z AUTO 10004KT 10SM CLR 17/07 A2997 RMK AO2 SLP151 T01670065
TAF
KWRB 
31nm N 
222100Z 2221/2403 35009KT 9999 SCT080 SCT200 QNH2996INS BECMG 2223/2224 01006KT 9999 SCT030 SCT200 QNH3002INS BECMG 2302/2303 01004KT 9999 BKN030 BKN200 QNH3004INS BECMG 2314/2315 04009KT 9999 BKN040 QNH2998INS TX23/2221Z TN10/2312Z LAST NO AMDS AFT 2222 NEXT 2621
KMCN 
36nm N 
232002Z 2320/2418 05007KT P6SM SCT030 FM240100 03003KT P6SM SCT035 BKN200 FM241400 06004KT P6SM FEW250
NOTAMs
Click for the latest NOTAMs
NOTAMs are issued by the DoD/FAA and will open in a separate window not controlled by AirNav.

 

 
 

Would you like to see your business listed on this page?

 If your business provides an interesting product or service to pilots, flight crews, aircraft, or users of the S&S Flying Service Airport, you should consider listing it here.  To start the listing process, click on the button below
 
Add a business
 

Other Pages about S&S Flying Service Airport

Update a link
 
Copyright © AirNav, LLC. All rights reserved. Privacy Policy  Contact